Dewpoint
53 54 55 55 55 56 56 56 57 58 58 58 58 58 58 58 59 59 59 59 59 60 61 60 60 60 59 59 59 60 53 31 27 28 27 31 42 55 56 58 59 60 55 37 34 25 22 24 25 27 17 18 24 23 24 26 28 23 17 17 14 15 13 18 14 16 14 18 19 20 28 28 23 26 28 27 27 30 31 30 31 32 31 30 30 31 33 35
53 54 55 55 55 55 56 57 57 58 58 58 57 58 58 59 59 59 59 59 60 60 60 59 59 60 57 57 58 58 41 33 25 27 28 41 55 58 58 58 60 57 49 35 33 32 22 22 27 19 16 15 26 20 27 25 24 21 17 13 13 16 17 22 18 19 18 16 18 20 25 27 24 27 27 23 24 26 26 26 28 29 30 31 32 32 32 33
54 54 54 55 55 56 56 57 57 58 57 57 57 58 58 59 59 59 60 60 60 60 60 59 58 59 58 57 56 54 37 33 21 21 25 52 57 58 57 57 60 53 36 33 37 34 27 27 31 18 19 14 20 21 25 23 27 25 20 19 20 20 17 21 21 21 20 19 20 21 24 27 27 26 27 24 24 26 25 24 23 27 26 25 27 30 32 32
53 54 54 55 55 56 56 57 57 57 57 57 57 58 59 59 59 60 59 60 60 60 60 60 57 59 59 57 58 43 35 27 20 21 28 51 57 56 57 57 59 51 41 39 39 40 34 25 23 18 19 18 20 23 20 21 20 22 21 19 21 23 18 18 22 22 21 24 21 22 25 21 20 26 26 26 23 21 20 23 25 23 22 22 24 26 31 31
53 54 54 55 55 56 56 57 57 57 57 58 58 58 59 59 59 59 59 60 60 59 59 60 61 60 58 57 53 38 28 13 16 28 28 54 56 54 56 58 59 43 40 41 33 31 22 19 21 24 20 15 24 19 20 23 21 23 22 24 21 20 17 18 19 19 21 25 24 23 22 20 23 26 26 25 24 20 20 21 28 27 25 24 24 24 28 31
53 54 54 55 55 55 56 56 57 57 57 58 58 59 59 59 59 59 59 59 59 59 59 61 60 59 58 55 39 35 23 -1 20 25 50 53 53 54 56 59 53 40 36 33 28 27 20 19 14 19 20 14 14 15 15 25 25 20 24 22 22 20 18 19 22 23 24 23 23 22 21 23 22 22 25 26 25 24 25 26 28 29 29 28 28 28 26 28
53 54 54 55 55 55 55 56 56 57 57 58 58 59 59 59 59 59 59 58 58 58 60 60 60 60 57 53 38 27 22 22 23 29 44 53 52 50 52 50 49 38 34 29 27 23 22 20 18 20 20 23 20 19 24 30 27 24 22 24 24 23 20 21 22 21 21 23 22 22 26 22 23 22 24 24 24 27 28 28 30 30 30 31 30 29 28 27
53 54 54 54 55 55 55 56 56 57 57 58 58 58 59 59 59 59 60 60 60 59 60 61 60 58 54 37 31 26 24 23 24 30 45 48 38 39 46 37 36 35 30 28 28 22 24 22 19 24 20 18 20 23 26 23 27 24 23 26 27 24 24 24 25 25 25 25 24 23 22 22 22 21 22 21 21 22 22 22 23 23 22 23 25 29 30 30
53 54 54 54 54 54 55 55 56 57 57 57 58 59 59 59 59 60 60 60 60 60 60 60 58 56 51 37 31 24 22 22 29 33 34 31 31 35 33 27 36 30 29 31 30 25 20 21 26 22 19 19 24 25 26 21 20 24 24 27 28 25 25 25 25 25 24 22 23 22 22 22 22 24 21 21 21 21 22 21 21 21 20 20 21 22 25 28
53 54 54 54 54 54 55 56 56 57 57 58 59 59 59 60 60 59 59 60 60 60 60 60 59 49 39 32 29 20 24 25 27 32 32 31 31 32 30 33 29 27 26 26 28 25 23 22 24 24 23 23 25 24 27 21 20 28 28 28 26 25 25 25 23 23 21 21 22 20 20 20 20 20 18 21 21 22 20 20 20 20 20 20 20 22 24 26
53 54 54 54 54 55 55 56 56 57 58 58 59 59 59 59 59 59 60 60 60 58 59 59 55 42 29 29 24 21 28 27 30 30 31 30 29 29 28 31 29 26 27 28 28 28 28 26 30 28 25 24 26 23 26 25 28 27 27 26 25 23 20 23 22 20 21 19 21 20 20 20 20 20 19 18 20 21 19 20 20 20 20 20 21 21 21 22
54 54 54 54 54 55 55 56 56 57 57 58 59 59 59 58 58 58 59 59 59 60 58 58 48 32 31 26 23 21 26 28 32 31 29 29 28 32 33 33 31 28 28 28 29 30 29 30 33 27 24 28 22 27 26 30 28 26 25 19 22 19 14 16 20 21 21 19 22 21 19 12 19 18 20 20 20 21 20 19 18 19 19 20 21 22 22 22
54 53 53 54 54 55 55 56 56 57 58 58 58 58 58 57 57 58 58 57 59 60 58 54 45 39 35 27 22 26 30 30 32 28 26 30 27 29 34 35 31 30 29 28 28 30 33 35 34 30 30 26 25 16 22 29 27 27 24 22 20 18 11 18 21 22 20 20 22 20 9 6 8 16 16 18 21 20 19 18 18 18 19 20 21 21 21 21
53 53 53 54 54 55 56 56 57 57 58 58 59 58 57 57 57 56 58 56 58 59 59 54 41 36 28 22 25 30 32 35 29 24 24 29 24 24 28 29 29 29 33 30 32 37 38 36 33 31 33 28 23 29 22 22 24 15 22 22 16 13 5 12 20 24 20 22 23 21 14 15 14 16 19 21 21 19 19 17 17 18 20 20 19 19 19 19
53 53 53 54 54 55 56 56 57 57 58 57 57 57 58 57 56 57 57 56 57 58 58 51 39 36 26 22 26 27 48 24 23 23 26 24 24 25 25 28 29 28 28 29 32 37 37 35 31 27 23 29 29 22 20 20 21 22 17 12 18 12 12 18 23 23 21 23 24 21 15 18 18 18 20 21 21 19 17 16 17 19 19 18 17 16 16 16
53 53 54 54 54 55 55 56 56 57 57 57 56 57 57 56 56 57 57 53 55 58 45 36 36 31 25 19 18 37 23 22 22 24 26 25 25 26 27 28 28 28 28 27 31 33 33 30 26 24 27 28 25 19 17 18 18 20 15 8 12 16 17 17 16 25 26 23 23 20 18 20 17 16 19 21 20 19 15 16 18 19 18 17 17 17 18 18
52 53 54 54 54 55 55 55 56 56 57 57 57 57 56 56 56 57 57 54 48 48 30 28 32 36 20 23 23 23 22 23 25 24 25 26 28 28 28 27 27 26 28 28 29 30 29 24 25 20 26 25 25 20 11 11 13 14 19 16 17 16 18 12 16 25 24 22 20 22 20 20 18 20 20 20 21 17 14 16 18 18 18 18 19 19 20 20
52 53 54 54 55 55 55 55 56 57 56 56 57 56 53 53 54 48 42 45 43 40 39 36 34 24 21 22 20 21 23 23 26 25 25 26 29 29 28 27 28 25 27 26 26 23 26 18 25 16 19 23 24 23 10 -2 8 15 19 20 20 20 21 17 16 16 23 23 22 21 20 20 19 19 19 20 19 15 16 17 18 18 19 19 20 20 20 21
53 53 54 54 55 55 55 56 57 56 56 57 56 57 53 51 42 31 33 32 32 29 24 25 25 17 15 19 20 22 24 27 27 22 22 25 27 32 33 32 28 22 23 21 24 25 26 22 22 20 17 20 22 22 17 18 19 21 20 19 20 19 17 13 16 20 24 21 19 18 16 17 19 19 19 19 17 17 18 19 19 19 19 19 19 20 20 20
53 53 54 54 55 55 55 56 57 56 56 46 39 39 39 29 30 26 30 33 25 25 25 25 26 25 22 22 22 23 26 24 20 17 22 26 28 25 25 28 29 28 29 24 27 28 27 19 17 13 19 21 21 22 23 24 22 22 23 21 23 21 20 18 19 22 24 20 20 20 20 20 19 19 19 18 19 19 19 19 19 19 19 18 19 19 19 19
53 53 54 54 55 55 56 56 56 55 52 41 38 35 26 27 24 20 23 26 29 32 27 27 27 21 21 22 23 26 24 20 17 18 22 27 27 19 21 27 25 21 24 27 25 27 25 19 20 21 21 21 23 24 23 24 24 24 23 21 20 16 12 11 13 20 24 20 19 20 20 18 19 19 17 18 19 18 19 19 19 18 18 18 18 18 19 19
53 53 54 54 55 55 56 56 55 54 48 39 36 31 29 30 29 31 26 18 25 30 29 27 28 21 22 23 24 28 25 20 15 18 22 25 26 20 25 22 23 21 24 24 22 20 19 18 22 24 24 23 24 24 25 24 22 23 19 16 12 12 14 16 19 23 22 21 18 20 19 17 18 17 18 18 18 19 19 19 19 19 18 18 18 18 18 18
53 53 54 54 54 55 56 56 54 50 39 35 34 35 35 39 41 40 31 25 20 25 28 26 23 19 22 24 26 26 19 20 19 18 22 24 25 29 27 20 21 24 26 23 15 15 14 18 23 24 24 17 20 22 21 20 21 16 14 11 11 15 14 13 16 21 21 20 20 21 19 17 11 15 17 19 19 19 19 19 18 19 18 18 18 18 18 18
53 53 54 54 55 56 56 55 52 41 39 37 37 34 38 39 42 38 28 19 13 17 28 25 21 22 22 21 23 28 19 21 21 17 24 23 25 26 26 24 18 21 23 23 20 16 14 18 25 23 19 16 15 17 20 19 16 18 16 12 12 15 16 14 13 19 22 19 22 19 14 7 9 12 16 19 20 18 18 16 16 16 18 19 18 17 18 18
52 53 54 55 55 56 55 51 44 37 38 33 37 39 39 40 42 35 28 22 19 15 28 23 26 19 22 26 27 27 28 28 23 23 25 24 26 27 24 27 21 15 22 24 20 20 18 22 25 20 18 16 15 14 19 18 16 17 15 13 14 16 18 18 20 19 10 5 19 17 8 3 6 15 18 19 19 17 17 15 15 15 15 16 16 16 17 19
52 53 53 55 55 55 54 38 35 38 32 26 32 41 40 41 41 31 20 17 0 8 20 12 19 14 23 18 23 25 25 19 20 22 31 25 29 27 25 17 20 14 20 23 20 16 17 22 20 19 18 16 15 11 15 19 17 10 12 15 18 19 18 17 16 16 7 2 9 19 4 1 10 11 18 19 18 17 17 15 14 14 14 15 15 15 16 17
53 53 53 55 55 54 32 29 33 36 28 33 42 41 41 43 41 38 28 11 3 9 10 18 19 13 27 22 24 23 9 12 15 22 20 24 25 27 17 14 20 24 25 27 19 3 24 18 23 22 18 17 13 13 14 18 14 11 10 20 20 18 16 15 18 16 12 17 17 20 8 3 6 8 18 19 17 16 16 15 14 13 13 14 14 15 16 17
53 54 54 55 53 46 29 34 37 33 26 39 41 40 40 40 39 33 18 -4 -12 18 10 18 16 24 22 24 21 15 12 19 12 10 25 26 22 21 18 15 13 16 20 17 -1 10 14 15 22 23 17 17 10 13 18 21 15 14 16 20 19 18 18 19 18 18 19 6 7 5 17 -2 -3 10 16 18 14 14 16 15 14 13 12 13 14 14 15 16
54 55 55 55 54 50 41 36 35 33 38 39 41 43 42 37 32 24 12 -7 -3 15 20 19 23 17 21 26 22 22 21 23 14 18 26 23 21 18 14 16 19 21 20 12 -0 6 14 19 20 22 15 11 16 20 21 22 15 18 21 19 19 20 22 21 18 17 9 4 -1 1 9 -1 3 10 14 16 15 14 15 15 13 13 11 12 14 14 14 15
55 56 55 54 46 39 40 37 32 37 40 42 43 42 35 33 21 15 -0 -17 8 0 16 18 19 14 23 18 19 20 17 19 24 23 24 16 16 23 22 21 17 12 11 18 8 6 9 28 27 22 20 17 24 23 22 22 20 22 20 15 12 11 12 17 12 5 -1 -13 1 2 7 1 2 11 14 14 15 14 17 14 12 12 11 11 13 13 14 15
55 54 53 50 37 35 33 29 33 38 39 43 39 33 26 18 14 2 -11 -5 17 14 21 18 17 24 20 16 12 19 21 21 17 22 17 21 18 21 20 13 19 12 15 15 15 14 15 22 19 23 29 24 23 18 21 23 24 19 17 14 8 0 9 12 8 4 -12 -9 -3 -2 8 4 -2 5 15 14 14 14 14 14 12 11 11 11 12 14 14 14
54 51 51 43 41 33 27 25 36 41 41 39 32 26 25 -1 15 6 -3 19 0 8 8 11 21 20 18 19 14 14 15 16 16 20 15 17 18 18 18 13 12 0 3 8 7 14 10 2 7 14 27 19 18 15 14 18 18 17 16 13 6 1 3 -3 -0 -2 -12 -7 -1 3 8 3 4 13 15 17 13 12 13 16 13 12 11 11 12 13 15 15
52 50 49 45 44 40 35 33 41 42 40 35 27 22 17 9 -9 0 3 10 -0 14 12 20 20 18 16 13 9 13 17 8 16 15 18 16 16 16 18 19 18 -1 -1 7 5 10 11 14 6 8 19 24 17 10 8 8 10 15 15 8 4 -2 -4 -7 -4 -9 -7 1 1 -0 7 6 11 14 16 13 15 14 14 14 14 12 12 13 13 14 15 17
50 47 39 42 40 39 39 41 40 37 29 34 19 21 12 4 -16 25 6 11 8 20 22 19 19 11 9 2 7 16 9 10 8 8 18 12 16 12 15 17 18 14 9 10 4 4 2 4 8 7 2 13 16 15 15 14 14 15 18 15 3 2 -1 -2 -8 -1 1 3 5 5 1 -3 4 11 15 12 13 13 13 14 14 14 14 15 14 16 16 17
49 44 41 36 36 37 40 40 41 39 30 20 14 16 5 -11 -6 -3 1 10 17 20 18 20 9 6 3 10 10 11 8 9 11 8 12 12 10 15 14 15 20 16 15 7 2 4 4 -1 3 8 10 15 13 18 20 17 11 17 20 16 8 4 12 1 3 -0 2 8 9 5 2 7 11 14 17 15 14 13 15 14 15 14 15 16 15 17 18 18
42 34 36 30 32 30 39 39 35 26 17 11 13 12 5 -3 -0 9 14 16 20 18 19 9 10 8 8 11 13 11 13 8 14 7 3 14 15 13 17 18 18 20 15 6 0 0 8 0 3 15 18 14 14 22 16 15 2 7 5 1 6 15 12 4 10 11 8 2 7 3 9 12 13 13 14 14 14 13 15 15 15 15 15 15 16 17 18 17
35 36 28 28 28 31 40 38 35 25 18 13 14 5 7 11 12 12 29 22 21 21 12 6 4 9 5 7 8 11 13 12 8 3 -3 5 3 14 17 17 20 21 20 16 13 4 1 6 12 12 9 11 19 20 19 21 17 12 4 6 16 18 15 10 4 -3 -1 3 0 3 5 6 6 2 13 13 11 14 15 14 14 14 15 14 15 14 15 16
35 33 29 26 28 33 40 39 31 25 21 16 19 25 18 14 20 20 23 23 23 20 11 3 -0 10 3 6 11 10 15 6 7 8 3 7 1 19 17 17 19 23 23 22 10 11 12 9 10 12 12 14 15 9 8 19 22 16 13 18 12 5 7 9 -2 -1 -2 -0 3 3 6 8 6 10 11 12 10 14 14 14 15 15 14 14 12 12 13 14
32 28 18 23 29 33 39 30 25 18 14 19 14 25 21 18 21 24 25 24 23 19 13 12 1 7 9 5 9 13 13 9 12 10 -4 0 1 9 14 17 15 23 23 21 16 17 15 5 9 9 11 11 5 9 4 3 12 21 19 15 18 10 4 6 5 3 1 4 4 5 6 6 14 13 11 11 11 15 14 14 15 15 13 11 8 9 11 12
32 15 11 22 29 32 34 26 24 21 17 15 10 14 21 23 25 27 26 27 23 14 12 14 16 6 11 12 12 7 15 15 16 14 2 4 6 10 17 21 20 21 22 23 17 20 14 8 2 7 11 8 3 3 3 2 6 9 10 11 14 5 12 10 3 3 6 5 6 7 6 9 15 13 9 12 13 15 14 14 14 14 12 6 6 8 10 11
27 19 11 28 28 30 29 25 22 22 21 19 21 20 24 21 24 25 27 26 27 25 18 16 18 11 12 12 10 16 16 17 16 9 12 10 4 3 18 20 22 22 23 18 16 15 7 10 5 11 10 1 4 6 5 5 10 11 12 10 13 6 10 8 6 2 6 9 8 7 5 11 16 15 10 13 14 15 15 14 13 9 5 4 6 9 10 11
21 12 17 24 27 28 23 18 18 22 23 16 14 22 25 35 19 20 22 26 24 21 21 21 20 18 18 18 14 17 19 14 15 10 10 5 9 6 12 20 24 26 18 15 14 19 16 14 13 12 7 6 6 7 16 18 17 16 15 14 15 9 3 6 6 10 12 12 12 13 6 3 17 13 14 14 12 15 16 15 11 6 4 5 7 9 10 11
19 13 21 29 27 24 13 15 21 24 17 22 25 23 23 22 19 20 21 23 20 21 19 19 19 13 16 20 20 20 18 9 14 5 11 14 14 14 15 23 25 26 21 14 15 21 25 6 4 6 7 10 14 16 17 18 16 15 16 14 12 5 7 8 11 14 10 10 6 4 2 4 16 17 16 11 12 17 16 12 7 5 5 7 8 9 10 11
18 11 17 27 27 27 16 9 10 12 17 21 20 21 20 23 22 21 21 22 22 21 19 19 18 20 19 21 21 16 17 -6 3 12 13 15 12 21 22 26 24 22 18 16 13 19 7 12 9 5 3 0 -3 -3 1 12 13 17 15 15 11 7 5 4 10 6 5 7 3 3 -1 2 10 8 7 8 8 13 12 8 6 4 6 7 8 9 10 11
16 21 22 20 25 20 12 18 18 18 21 14 15 14 16 18 23 24 22 22 25 23 16 15 20 21 20 21 20 22 22 2 5 11 11 11 13 18 20 17 18 23 25 27 30 26 12 12 5 -0 -1 -1 -3 -1 2 7 11 17 15 11 10 7 8 9 6 7 5 5 5 3 3 6 7 7 8 8 10 13 9 6 6 6 7 8 10 10 11 12
18 3 13 14 18 22 23 23 21 17 13 10 15 13 14 13 15 19 23 23 24 24 21 21 21 22 19 18 18 20 19 19 9 8 14 11 13 14 22 22 23 27 29 29 27 22 12 14 11 8 2 4 8 9 11 14 13 11 9 8 6 9 11 9 8 6 4 6 6 7 7 5 6 8 8 8 13 9 5 4 5 6 8 9 10 11 12 13
20 20 10 4 21 18 19 23 23 21 12 19 13 15 9 16 14 11 24 16 23 23 24 20 20 14 15 17 18 17 18 16 13 11 12 9 12 14 17 23 25 28 29 27 24 9 5 11 15 14 9 12 11 11 13 16 13 15 7 7 8 9 8 8 8 5 9 8 2 4 6 8 7 8 8 12 11 6 4 4 6 8 9 10 10 11 16 12
19 16 22 21 15 4 17 15 23 23 23 22 13 19 16 15 17 10 17 22 23 19 10 5 11 20 21 18 17 6 13 13 9 1 9 9 11 17 16 17 23 25 27 22 20 16 11 8 7 9 7 11 14 14 14 14 16 14 9 9 7 8 7 7 8 10 10 8 4 7 8 8 8 7 10 11 7 4 4 6 8 9 10 11 11 12 12 12
22 21 23 24 15 17 18 16 24 22 23 23 23 18 14 14 12 18 17 21 12 14 11 0 5 15 22 22 19 13 16 5 8 6 7 9 11 15 10 10 22 23 22 20 19 8 8 6 3 5 12 13 13 13 13 12 14 9 7 10 9 8 8 9 9 10 10 9 9 9 8 7 6 7 12 8 5 5 6 8 10 10 11 12 12 12 11 13
16 19 14 21 24 22 21 19 21 21 20 24 14 16 20 19 13 19 21 15 6 10 19 14 14 20 23 22 22 12 11 9 9 9 10 12 17 13 10 13 13 20 22 19 16 17 12 9 15 10 12 10 10 10 11 14 10 9 10 10 10 10 10 9 10 10 10 9 8 7 5 2 3 12 8 6 6 7 8 9 10 11 12 12 12 11 13 18
21 23 21 17 17 17 21 19 20 21 17 21 17 18 23 20 18 20 20 19 14 13 21 17 19 23 21 21 22 22 22 19 16 16 17 16 17 17 11 11 23 19 19 17 14 17 12 12 9 8 11 7 7 12 14 11 11 7 10 11 11 10 10 10 10 10 9 7 6 4 -0 0 8 8 6 6 7 7 8 9 11 11 12 12 11 12 16 16
23 21 25 23 14 21 15 17 20 20 9 16 22 23 18 20 21 23 16 20 24 23 23 23 22 22 19 14 11 12 16 18 20 22 22 22 22 23 24 24 24 20 16 13 12 15 6 9 13 6 11 7 10 14 12 8 9 2 5 11 12 12 11 11 10 9 8 7 3 -1 -0 7 7 6 6 7 7 8 9 10 11 11 11 11 12 15 16 13